^^
Station Historical Data
Daily Summary for May 1, 2019 Units:  English    Metric   Both
« Previous Day
Next Day »
Daily Weekly Monthly Yearly Custom
  High: Low: Average:
Temperature: 44.7 °F 33 °F 37.7 °F
Dew Point: 39 °F 30.4 °F 34 °F
Humidity: 94% 65% 87%
Wind Speed: 14mph 0mph 4.1mph
Wind Gust: 15mph - -
Wind- - East
Pressure: 30.11 in 30.03 in -
Precipitation: 0.06 in    
Historical Graphs
 
 
Tabular Data for May 1, 2019
Time Temperature Dew Point Pressure Wind Wind Speed Wind Gust Humidity Rainfall Rate (Hourly) solar Conditions
00:04 35 °F 32.4 °F 30.11 in ENE 1 mph 4 mph 90% 0 in 0.00 W/m2
00:09 35 °F 32.4 °F 30.11 in ENE 2 mph 4 mph 90% 0 in 0.00 W/m2
00:14 35 °F 32.4 °F 30.11 in ENE 1 mph 3 mph 90% 0 in 0.00 W/m2
00:19 35 °F 32.4 °F 30.10 in ENE 2 mph 3 mph 90% 0 in 0.00 W/m2
00:24 35 °F 32.6 °F 30.10 in ENE 2 mph 3 mph 91% 0 in 0.00 W/m2
00:29 34.9 °F 32.3 °F 30.10 in NE 3 mph 4 mph 90% 0 in 0.00 W/m2
00:34 34.8 °F 32.2 °F 30.09 in NE 2 mph 4 mph 90% 0 in 0.00 W/m2
00:39 34.8 °F 32.4 °F 30.09 in NE 3 mph 4 mph 91% 0 in 0.00 W/m2
00:44 34.7 °F 32.3 °F 30.08 in NE 3 mph 6 mph 91% 0 in 0.00 W/m2
00:49 34.6 °F 32.2 °F 30.08 in NE 6 mph 6 mph 91% 0 in 0.00 W/m2
00:54 34.6 °F 32.2 °F 30.08 in ENE 5 mph 6 mph 91% 0 in 0.00 W/m2
00:59 34.6 °F 32.2 °F 30.08 in NE 3 mph 6 mph 91% 0 in 0.00 W/m2
01:04 34.6 °F 32.2 °F 30.09 in ENE 4 mph 5 mph 91% 0 in 0.00 W/m2
01:09 34.6 °F 32.2 °F 30.09 in ENE 2 mph 4 mph 91% 0 in 0.00 W/m2
01:14 34.6 °F 32.5 °F 30.08 in ENE 4 mph 5 mph 92% 0 in 0.00 W/m2
01:19 34.6 °F 32.5 °F 30.09 in ENE 3 mph 5 mph 92% 0 in 0.00 W/m2
01:24 34.6 °F 32.5 °F 30.09 in ENE 2 mph 5 mph 92% 0 in 0.00 W/m2
01:29 34.6 °F 32.5 °F 30.09 in ENE 2 mph 5 mph 92% 0 in 0.00 W/m2
01:34 34.7 °F 32.6 °F 30.09 in ENE 2 mph 4 mph 92% 0 in 0.00 W/m2
01:39 34.7 °F 32.6 °F 30.09 in East 3 mph 4 mph 92% 0 in 0.00 W/m2
01:44 34.7 °F 32.6 °F 30.09 in ENE 2 mph 4 mph 92% 0 in 0.00 W/m2
01:49 34.7 °F 32.6 °F 30.08 in ENE 2 mph 4 mph 92% 0 in 0.00 W/m2
01:54 34.8 °F 32.7 °F 30.08 in NE 4 mph 5 mph 92% 0 in 0.00 W/m2
01:59 34.8 °F 32.7 °F 30.08 in NE 3 mph 5 mph 92% 0 in 0.00 W/m2
02:04 34.8 °F 32.7 °F 30.08 in ENE 3 mph 5 mph 92% 0 in 0.00 W/m2
02:09 34.8 °F 33 °F 30.07 in ENE 3 mph 5 mph 93% 0 in 0.00 W/m2
02:14 34.9 °F 33.1 °F 30.07 in NE 2 mph 4 mph 93% 0 in 0.00 W/m2
02:19 34.9 °F 33.1 °F 30.07 in ENE 2 mph 4 mph 93% 0 in 0.00 W/m2
02:24 34.9 °F 33.1 °F 30.08 in ENE 3 mph 4 mph 93% 0 in 0.00 W/m2
02:29 35 °F 33.2 °F 30.08 in ENE 1 mph 4 mph 93% 0 in 0.00 W/m2
02:34 35 °F 33.2 °F 30.08 in ENE 3 mph 5 mph 93% 0 in 0.00 W/m2
02:39 35.1 °F 33.3 °F 30.08 in ENE 2 mph 5 mph 93% 0 in 0.00 W/m2
02:44 35.1 °F 33.3 °F 30.08 in ENE 1 mph 4 mph 93% 0 in 0.00 W/m2
02:49 35.1 °F 33.3 °F 30.08 in ENE 1 mph 3 mph 93% 0 in 0.00 W/m2
02:54 35.1 °F 33.3 °F 30.07 in ENE 3 mph 3 mph 93% 0 in 0.00 W/m2
02:59 35.2 °F 33.4 °F 30.07 in ENE 3 mph 3 mph 93% 0 in 0.00 W/m2
03:04 35.2 °F 33.4 °F 30.07 in NE 3 mph 3 mph 93% 0 in 0.00 W/m2
03:09 35.3 °F 33.5 °F 30.07 in NE 3 mph 4 mph 93% 0 in 0.00 W/m2
03:14 35.3 °F 33.5 °F 30.06 in NE 1 mph 4 mph 93% 0 in 0.00 W/m2
03:19 35.3 °F 33.5 °F 30.06 in NE 4 mph 5 mph 93% 0 in 0.00 W/m2
03:24 35.3 °F 33.5 °F 30.07 in ENE 5 mph 7 mph 93% 0 in 0.00 W/m2
03:29 35.3 °F 33.5 °F 30.06 in NE 4 mph 7 mph 93% 0 in 0.00 W/m2
03:34 35.3 °F 33.5 °F 30.06 in NE 3 mph 7 mph 93% 0 in 0.00 W/m2
03:39 35.3 °F 33.5 °F 30.06 in ENE 3 mph 7 mph 93% 0 in 0.00 W/m2
03:44 35.3 °F 33.5 °F 30.06 in ENE 3 mph 7 mph 93% 0 in 0.00 W/m2
03:49 35.2 °F 33.4 °F 30.07 in NE 2 mph 6 mph 93% 0 in 0.00 W/m2
03:54 35.1 °F 33.3 °F 30.06 in NE 3 mph 5 mph 93% 0 in 0.00 W/m2
03:59 35.1 °F 33.3 °F 30.06 in NE 2 mph 4 mph 93% 0 in 0.00 W/m2
04:04 35 °F 33.2 °F 30.05 in NE 3 mph 3 mph 93% 0 in 0.00 W/m2
04:09 35 °F 33.2 °F 30.05 in NE 3 mph 3 mph 93% 0 in 0.00 W/m2
04:14 35 °F 33.2 °F 30.04 in NE 5 mph 6 mph 93% 0 in 0.00 W/m2
04:19 34.9 °F 33.3 °F 30.04 in NE 4 mph 7 mph 94% 0 in 0.00 W/m2
04:24 34.8 °F 33 °F 30.05 in NE 3 mph 7 mph 93% 0 in 0.00 W/m2
04:29 34.8 °F 33.2 °F 30.05 in NE 1 mph 6 mph 94% 0 in 0.00 W/m2
04:34 34.8 °F 33 °F 30.05 in NE 1 mph 5 mph 93% 0 in 0.00 W/m2
04:39 34.8 °F 33 °F 30.06 in NE 3 mph 4 mph 93% 0 in 0.00 W/m2
04:44 34.8 °F 33.2 °F 30.06 in NNE 4 mph 4 mph 94% 0 in 0.00 W/m2
04:49 34.8 °F 33.2 °F 30.05 in NNE 3 mph 4 mph 94% 0 in 0.00 W/m2
04:54 34.8 °F 33.2 °F 30.06 in NE 3 mph 4 mph 94% 0 in 0.00 W/m2
04:59 34.8 °F 33.2 °F 30.05 in NE 3 mph 4 mph 94% 0 in 0.00 W/m2
05:04 34.8 °F 33.2 °F 30.05 in NE 1 mph 5 mph 94% 0 in 0.00 W/m2
05:09 34.8 °F 33.2 °F 30.05 in NNE 4 mph 5 mph 94% 0 in 0.00 W/m2
05:14 34.9 °F 33.3 °F 30.05 in NNE 3 mph 4 mph 94% 0 in 0.00 W/m2
05:19 34.9 °F 33.3 °F 30.05 in NE 3 mph 4 mph 94% 0 in 0.00 W/m2
05:24 34.9 °F 33.3 °F 30.05 in NE 3 mph 4 mph 94% 0 in 0.00 W/m2
05:29 34.9 °F 33.3 °F 30.04 in NNE 3 mph 5 mph 94% 0 in 0.00 W/m2
05:34 34.9 °F 33.3 °F 30.04 in NNE 3 mph 6 mph 94% 0 in 0.00 W/m2
05:39 34.8 °F 33.2 °F 30.04 in NNE 5 mph 6 mph 94% 0 in 0.00 W/m2
05:44 34.8 °F 33.2 °F 30.04 in NNE 4 mph 7 mph 94% 0 in 0.00 W/m2
05:49 34.7 °F 33.2 °F 30.04 in NNE 4 mph 7 mph 94% 0 in 0.00 W/m2
05:54 34.7 °F 33.2 °F 30.03 in NE 4 mph 7 mph 94% 0 in 0.00 W/m2
05:59 34.6 °F 33.1 °F 30.04 in NE 6 mph 9 mph 94% 0 in 0.00 W/m2
06:04 34.5 °F 33 °F 30.04 in NE 4 mph 9 mph 94% 0 in 0.00 W/m2
06:09 34.5 °F 33 °F 30.03 in NE 6 mph 9 mph 94% 0 in 0.00 W/m2
06:14 34.5 °F 33 °F 30.04 in NE 5 mph 8 mph 94% 0 in 0.00 W/m2
06:19 34.5 °F 33 °F 30.04 in NE 2 mph 8 mph 94% 0 in 0.00 W/m2
06:24 34.5 °F 33 °F 30.04 in NE 3 mph 6 mph 94% 0 in 0.00 W/m2
06:29 34.5 °F 33 °F 30.04 in NNE 2 mph 4 mph 94% 0 in 5.00 W/m2
06:34 34.6 °F 33.1 °F 30.04 in NNE 3 mph 4 mph 94% 0 in 5.00 W/m2
06:39 34.6 °F 33.1 °F 30.05 in NNE 4 mph 4 mph 94% 0 in 5.00 W/m2
06:44 34.6 °F 33.1 °F 30.05 in NNE 3 mph 4 mph 94% 0 in 7.00 W/m2
06:49 34.6 °F 33.1 °F 30.05 in NNE 3 mph 4 mph 94% 0 in 11.00 W/m2
06:54 34.6 °F 33.1 °F 30.05 in NNE 3 mph 4 mph 94% 0 in 11.00 W/m2
06:59 34.6 °F 33.1 °F 30.05 in NE 4 mph 4 mph 94% 0 in 11.00 W/m2
07:04 34.6 °F 33.1 °F 30.06 in NE 4 mph 5 mph 94% 0 in 16.00 W/m2
07:09 34.5 °F 33 °F 30.06 in NE 4 mph 7 mph 94% 0 in 19.00 W/m2
07:14 34.5 °F 33 °F 30.06 in NE 4 mph 7 mph 94% 0 in 23.00 W/m2
07:19 34.5 °F 33 °F 30.06 in NNE 7 mph 7 mph 94% 0 in 23.00 W/m2
07:24 34.4 °F 32.9 °F 30.06 in NNE 3 mph 8 mph 94% 0 in 23.00 W/m2
07:29 34.4 °F 32.9 °F 30.06 in North 7 mph 8 mph 94% 0 in 28.00 W/m2
07:34 34.5 °F 33 °F 30.06 in NNE 5 mph 7 mph 94% 0 in 33.00 W/m2
07:39 34.6 °F 33.1 °F 30.07 in North 5 mph 9 mph 94% 0 in 37.00 W/m2
07:44 34.6 °F 33.1 °F 30.07 in North 3 mph 9 mph 94% 0 in 37.00 W/m2
07:49 34.8 °F 33.2 °F 30.07 in North 3 mph 6 mph 94% 0 in 39.00 W/m2
07:54 34.8 °F 33.2 °F 30.07 in North 4 mph 7 mph 94% 0 in 46.00 W/m2
07:59 35 °F 33.4 °F 30.08 in North 4 mph 7 mph 94% 0 in 44.00 W/m2
08:04 35 °F 33.4 °F 30.08 in NNE 3 mph 6 mph 94% 0 in 46.00 W/m2
08:09 35.1 °F 33.5 °F 30.08 in NNE 2 mph 6 mph 94% 0 in 46.00 W/m2
08:14 35.2 °F 33.6 °F 30.08 in NNE 2 mph 6 mph 94% 0 in 46.00 W/m2
08:19 35.3 °F 33.7 °F 30.08 in Calm   4 mph 94% 0 in 47.00 W/m2
08:24 35.4 °F 33.8 °F 30.08 in Calm   3 mph 94% 0 in 42.00 W/m2
08:29 35.5 °F 33.9 °F 30.08 in NNE 1 mph 4 mph 94% 0 in 42.00 W/m2
08:34 35.5 °F 33.9 °F 30.08 in NNE 2 mph 4 mph 94% 0 in 40.00 W/m2
08:39 35.6 °F 34 °F 30.08 in NNE 1 mph 3 mph 94% 0 in 35.00 W/m2
08:44 35.6 °F 34 °F 30.08 in NNE 1 mph 3 mph 94% 0 in 39.00 W/m2
08:49 35.6 °F 33.8 °F 30.08 in NNE 2 mph 3 mph 93% 0 in 35.00 W/m2
08:54 35.7 °F 33.9 °F 30.09 in NNE 2 mph 4 mph 93% 0 in 30.00 W/m2
08:59 35.7 °F 33.9 °F 30.09 in NE 4 mph 4 mph 93% 0 in 37.00 W/m2
09:04 35.4 °F 33.6 °F 30.08 in ENE 2 mph 4 mph 93% 0.01 in 49.00 W/m2
09:09 35.2 °F 33.4 °F 30.08 in Calm   4 mph 93% 0.01 in 58.00 W/m2
09:14 35.2 °F 33.4 °F 30.08 in Calm   4 mph 93% 0.02 in 77.00 W/m2
09:19 35.3 °F 33.5 °F 30.08 in Calm   2 mph 93% 0.02 in 83.00 W/m2
09:24 35.2 °F 33.4 °F 30.08 in ENE 2 mph 2 mph 93% 0.02 in 83.00 W/m2
09:29 35.3 °F 33.5 °F 30.08 in Calm   2 mph 93% 0.02 in 93.00 W/m2
09:34 35.4 °F 33.6 °F 30.08 in Calm   2 mph 93% 0.02 in 88.00 W/m2
09:39 35.6 °F 33.8 °F 30.08 in Calm   2 mph 93% 0.02 in 63.00 W/m2
09:44 35.5 °F 33.7 °F 30.08 in ENE 3 mph 4 mph 93% 0.03 in 54.00 W/m2
09:49 35.4 °F 33.6 °F 30.08 in ENE 2 mph 5 mph 93% 0.03 in 70.00 W/m2
09:54 35.5 °F 33.7 °F 30.08 in ENE 4 mph 5 mph 93% 0.03 in 83.00 W/m2
09:59 35.6 °F 33.8 °F 30.08 in NNE 4 mph 5 mph 93% 0.03 in 69.00 W/m2
10:04 35.8 °F 34 °F 30.08 in NE 6 mph 6 mph 93% 0.02 in 65.00 W/m2
10:09 35.6 °F 33.8 °F 30.07 in NE 5 mph 7 mph 93% 0.03 in 60.00 W/m2
10:14 35.6 °F 33.8 °F 30.07 in NE 3 mph 7 mph 93% 0.02 in 98.00 W/m2
10:19 35.7 °F 33.9 °F 30.07 in NE 3 mph 7 mph 93% 0.02 in 104.00 W/m2
10:24 35.9 °F 34.1 °F 30.07 in NE 7 mph 8 mph 93% 0.02 in 72.00 W/m2
10:29 35.8 °F 34 °F 30.07 in NE 5 mph 8 mph 93% 0.02 in 118.00 W/m2
10:34 35.8 °F 34 °F 30.07 in NE 4 mph 9 mph 93% 0.02 in 120.00 W/m2
10:39 36.1 °F 34.5 °F 30.07 in NE 7 mph 9 mph 94% 0.02 in 155.00 W/m2
10:44 36.3 °F 34.7 °F 30.06 in NE 10 mph 10 mph 94% 0.01 in 155.00 W/m2
10:49 36.6 °F 35 °F 30.06 in NE 9 mph 10 mph 94% 0.02 in 179.00 W/m2
10:54 36.5 °F 34.7 °F 30.06 in NE 8 mph 12 mph 93% 0.02 in 190.00 W/m2
10:59 36.6 °F 34.8 °F 30.07 in NE 7 mph 12 mph 93% 0.02 in 181.00 W/m2
11:04 36.8 °F 35 °F 30.06 in NE 11 mph 12 mph 93% 0.02 in 209.00 W/m2
11:09 36.7 °F 34.9 °F 30.06 in NE 13 mph 13 mph 93% 0.01 in 295.00 W/m2
11:14 37.2 °F 35.6 °F 30.07 in NE 9 mph 13 mph 94% 0.01 in 295.00 W/m2
11:19 37.5 °F 35.7 °F 30.07 in NE 9 mph 13 mph 93% 0.01 in 311.00 W/m2
11:24 37.4 °F 35.6 °F 30.07 in ENE 8 mph 13 mph 93% 0.01 in 359.00 W/m2
11:29 37.3 °F 35.2 °F 30.07 in NE 9 mph 14 mph 92% 0.01 in 278.00 W/m2
11:34 37.5 °F 35.4 °F 30.07 in NE 9 mph 14 mph 92% 0.01 in 287.00 W/m2
11:39 37.8 °F 35.7 °F 30.07 in NE 8 mph 13 mph 92% 0.01 in 221.00 W/m2
11:44 37.9 °F 35.8 °F 30.07 in ENE 5 mph 13 mph 92% 0.01 in 197.00 W/m2
11:49 37.9 °F 35.5 °F 30.07 in NE 7 mph 12 mph 91% 0 in 199.00 W/m2
11:54 38.2 °F 36.1 °F 30.08 in NE 3 mph 12 mph 92% 0 in 332.00 W/m2
11:59 38.2 °F 35.8 °F 30.09 in ENE 8 mph 10 mph 91% 0 in 267.00 W/m2
12:04 38 °F 35.3 °F 30.08 in NE 9 mph 11 mph 90% 0 in 185.00 W/m2
12:09 38 °F 35.3 °F 30.08 in NE 8 mph 11 mph 90% 0 in 237.00 W/m2
12:14 37.8 °F 34.8 °F 30.09 in ENE 7 mph 11 mph 89% 0 in 230.00 W/m2
12:19 38 °F 35 °F 30.09 in NE 7 mph 10 mph 89% 0 in 181.00 W/m2
12:24 38.1 °F 35.1 °F 30.09 in ENE 3 mph 10 mph 89% 0 in 218.00 W/m2
12:29 38.1 °F 35.1 °F 30.09 in NE 7 mph 10 mph 89% 0 in 229.00 W/m2
12:34 38 °F 34.8 °F 30.08 in ENE 3 mph 9 mph 88% 0 in 248.00 W/m2
12:39 38 °F 34.8 °F 30.08 in ENE 4 mph 9 mph 88% 0 in 260.00 W/m2
12:44 38.1 °F 34.9 °F 30.08 in NE 5 mph 10 mph 88% 0 in 316.00 W/m2
12:49 38.2 °F 35.2 °F 30.08 in ENE 8 mph 11 mph 89% 0.01 in 341.00 W/m2
12:54 38.4 °F 35.2 °F 30.08 in ENE 5 mph 11 mph 88% 0.01 in 311.00 W/m2
12:59 38.8 °F 35.8 °F 30.08 in ENE 5 mph 10 mph 89% 0.01 in 332.00 W/m2
13:04 38.8 °F 35.6 °F 30.09 in NE 5 mph 10 mph 88% 0.01 in 325.00 W/m2
13:09 39.2 °F 36.2 °F 30.08 in NE 8 mph 10 mph 89% 0.01 in 348.00 W/m2
13:14 39.3 °F 36 °F 30.08 in ENE 3 mph 11 mph 88% 0.01 in 311.00 W/m2
13:19 39.5 °F 36.2 °F 30.08 in NE 5 mph 11 mph 88% 0.01 in 264.00 W/m2
13:24 39.2 °F 35.4 °F 30.08 in NE 7 mph 10 mph 86% 0.01 in 320.00 W/m2
13:29 39.3 °F 35.8 °F 30.08 in NNE 7 mph 10 mph 87% 0.01 in 429.00 W/m2
13:34 40.3 °F 37.3 °F 30.08 in ENE 8 mph 10 mph 89% 0.01 in 357.00 W/m2
13:39 40.2 °F 36.6 °F 30.08 in ENE 7 mph 10 mph 87% 0.01 in 338.00 W/m2
13:44 40 °F 35.9 °F 30.08 in NNE 5 mph 11 mph 85% 0.01 in 353.00 W/m2
13:49 40.2 °F 36.3 °F 30.08 in NE 9 mph 12 mph 86% 0 in 348.00 W/m2
13:54 40.1 °F 36 °F 30.07 in ENE 12 mph 12 mph 85% 0 in 290.00 W/m2
13:59 39.9 °F 35.8 °F 30.07 in NE 8 mph 12 mph 85% 0 in 304.00 W/m2
14:04 40.2 °F 36.6 °F 30.07 in NNE 6 mph 12 mph 87% 0 in 383.00 W/m2
14:09 40.5 °F 36.9 °F 30.08 in NNE 9 mph 11 mph 87% 0 in 299.00 W/m2
14:14 40.6 °F 36.7 °F 30.07 in NNE 10 mph 10 mph 86% 0 in 346.00 W/m2
14:19 41.1 °F 37.8 °F 30.07 in NNE 9 mph 11 mph 88% 0 in 513.00 W/m2
14:24 41.5 °F 37.9 °F 30.07 in NE 7 mph 11 mph 87% 0 in 545.00 W/m2
14:29 41.7 °F 37.8 °F 30.07 in NE 14 mph 14 mph 86% 0 in 339.00 W/m2
14:34 41.2 °F 36.7 °F 30.07 in ENE 9 mph 14 mph 84% 0 in 323.00 W/m2
14:39 40.7 °F 35.6 °F 30.08 in NE 5 mph 13 mph 82% 0 in 308.00 W/m2
14:44 40.6 °F 36.1 °F 30.08 in NE 9 mph 12 mph 84% 0 in 232.00 W/m2
14:49 40.7 °F 35.9 °F 30.08 in NE 6 mph 12 mph 83% 0 in 323.00 W/m2
14:54 41.5 °F 37 °F 30.07 in NNE 9 mph 10 mph 84% 0 in 1009.00 W/m2
14:59 42.9 °F 39 °F 30.07 in NNE 10 mph 13 mph 86% 0 in 411.00 W/m2
15:04 43 °F 38.2 °F 30.08 in NE 10 mph 13 mph 83% 0 in 227.00 W/m2
15:09 42.5 °F 36.8 °F 30.08 in NE 8 mph 12 mph 80% 0 in 278.00 W/m2
15:14 42 °F 36.3 °F 30.08 in NNE 5 mph 11 mph 80% 0 in 290.00 W/m2
15:19 42.1 °F 36.7 °F 30.07 in North 7 mph 10 mph 81% 0 in 306.00 W/m2
15:24 42.2 °F 36.8 °F 30.07 in NNE 12 mph 13 mph 81% 0 in 304.00 W/m2
15:29 42.3 °F 37.2 °F 30.07 in NNE 5 mph 13 mph 82% 0 in 367.00 W/m2
15:34 42.5 °F 37.1 °F 30.07 in NNE 4 mph 13 mph 81% 0 in 411.00 W/m2
15:39 42.7 °F 36 °F 30.07 in NNE 4 mph 11 mph 77% 0 in 396.00 W/m2
15:44 43 °F 36 °F 30.07 in NE 7 mph 10 mph 76% 0 in 369.00 W/m2
15:49 43.4 °F 36.7 °F 30.07 in North 5 mph 10 mph 77% 0 in 353.00 W/m2
15:54 43.4 °F 36 °F 30.07 in NNE 5 mph 10 mph 75% 0 in 336.00 W/m2
15:59 43.4 °F 35.7 °F 30.07 in North 11 mph 13 mph 74% 0 in 330.00 W/m2
16:04 43.6 °F 36.2 °F 30.07 in North 6 mph 13 mph 75% 0 in 320.00 W/m2
16:09 43.6 °F 35.9 °F 30.06 in North 6 mph 10 mph 74% 0 in 359.00 W/m2
16:14 43.7 °F 35.6 °F 30.06 in NE 6 mph 12 mph 73% 0 in 369.00 W/m2
16:19 43.8 °F 35 °F 30.06 in NNE 5 mph 13 mph 71% 0 in 380.00 W/m2
16:24 44.1 °F 35.6 °F 30.06 in NNW 6 mph 13 mph 72% 0 in 388.00 W/m2
16:29 44.4 °F 35.6 °F 30.06 in North 4 mph 14 mph 71% 0 in 429.00 W/m2
16:34 44.7 °F 35.1 °F 30.06 in NNW 9 mph 14 mph 69% 0 in 385.00 W/m2
16:39 44.2 °F 33.2 °F 30.06 in NE 2 mph 11 mph 65% 0 in 399.00 W/m2
16:44 44.1 °F 34.2 °F 30.06 in North 5 mph 9 mph 68% 0 in 366.00 W/m2
16:49 44.4 °F 34.9 °F 30.06 in NNE 9 mph 11 mph 69% 0 in 350.00 W/m2
16:54 44.5 °F 33.8 °F 30.06 in East 3 mph 11 mph 66% 0 in 327.00 W/m2
16:59 44.5 °F 34.2 °F 30.06 in NNW 6 mph 10 mph 67% 0 in 276.00 W/m2
17:04 44 °F 34.1 °F 30.06 in NNW 11 mph 13 mph 68% 0 in 230.00 W/m2
17:09 43.7 °F 34.9 °F 30.06 in North 7 mph 15 mph 71% 0 in 229.00 W/m2
17:14 43.6 °F 35.2 °F 30.06 in North 12 mph 15 mph 72% 0 in 246.00 W/m2
17:19 43.3 °F 35.2 °F 30.06 in North 12 mph 15 mph 73% 0 in 248.00 W/m2
17:24 43.2 °F 35.8 °F 30.06 in North 6 mph 14 mph 75% 0 in 227.00 W/m2
17:29 43.2 °F 35.8 °F 30.06 in NNE 8 mph 12 mph 75% 0 in 209.00 W/m2
17:34 43 °F 34.9 °F 30.07 in North 3 mph 12 mph 73% 0 in 202.00 W/m2
17:39 43.1 °F 35 °F 30.07 in North 7 mph 12 mph 73% 0 in 199.00 W/m2
17:44 43.1 °F 34.7 °F 30.07 in NE 8 mph 10 mph 72% 0 in 195.00 W/m2
17:49 43.1 °F 34.7 °F 30.07 in North 5 mph 10 mph 72% 0 in 202.00 W/m2
17:54 43.2 °F 35.1 °F 30.06 in NNE 8 mph 9 mph 73% 0 in 206.00 W/m2
17:59 43.4 °F 35.3 °F 30.06 in NNE 7 mph 11 mph 73% 0 in 199.00 W/m2
18:04 43.4 °F 35 °F 30.07 in NNE 4 mph 11 mph 72% 0 in 188.00 W/m2
18:09 43.3 °F 34.2 °F 30.07 in NE 9 mph 10 mph 70% 0 in 172.00 W/m2
18:14 43 °F 33.5 °F 30.07 in NE 3 mph 10 mph 69% 0 in 165.00 W/m2
18:19 42.9 °F 34.1 °F 30.07 in North 7 mph 10 mph 71% 0 in 171.00 W/m2
18:24 42.9 °F 34.8 °F 30.07 in North 8 mph 9 mph 73% 0 in 167.00 W/m2
18:29 43 °F 35.3 °F 30.07 in North 6 mph 9 mph 74% 0 in 167.00 W/m2
18:34 42.7 °F 35.3 °F 30.07 in NNE 5 mph 10 mph 75% 0 in 183.00 W/m2
18:39 42.7 °F 36 °F 30.07 in NNE 5 mph 10 mph 77% 0 in 185.00 W/m2
18:44 42.7 °F 36 °F 30.07 in NNE 5 mph 9 mph 77% 0 in 197.00 W/m2
18:49 42.7 °F 36 °F 30.07 in NNE 7 mph 9 mph 77% 0 in 176.00 W/m2
18:54 42.5 °F 35.5 °F 30.07 in North 3 mph 9 mph 76% 0 in 181.00 W/m2
18:59 42.5 °F 35.5 °F 30.07 in NNW 4 mph 7 mph 76% 0 in 197.00 W/m2
19:04 41.9 °F 34.6 °F 30.07 in NNW 4 mph 7 mph 75% 0 in 185.00 W/m2
19:09 41.7 °F 34.4 °F 30.07 in NNW 2 mph 5 mph 75% 0 in 156.00 W/m2
19:14 41.8 °F 34.8 °F 30.07 in NNE 4 mph 5 mph 76% 0 in 137.00 W/m2
19:19 42 °F 35 °F 30.07 in NNE 1 mph 5 mph 76% 0 in 127.00 W/m2
19:24 42 °F 34.3 °F 30.07 in ENE 2 mph 5 mph 74% 0 in 114.00 W/m2
19:29 42.1 °F 34.4 °F 30.07 in ENE 1 mph 4 mph 74% 0 in 105.00 W/m2
19:34 41.8 °F 33.8 °F 30.07 in NE 2 mph 3 mph 73% 0 in 98.00 W/m2
19:39 41.5 °F 33.5 °F 30.07 in Calm   3 mph 73% 0 in 91.00 W/m2
19:44 41.4 °F 33.7 °F 30.07 in NNW 3 mph 4 mph 74% 0 in 84.00 W/m2
19:49 41.2 °F 33.9 °F 30.07 in NNW 2 mph 5 mph 75% 0 in 77.00 W/m2
19:54 41.1 °F 33.4 °F 30.07 in Calm   5 mph 74% 0 in 65.00 W/m2
19:59 41 °F 33.3 °F 30.07 in NNW 1 mph 3 mph 74% 0 in 54.00 W/m2
20:04 40.9 °F 33.6 °F 30.07 in West 2 mph 3 mph 75% 0 in 46.00 W/m2
20:09 40.7 °F 33.7 °F 30.07 in West 1 mph 4 mph 76% 0 in 39.00 W/m2
20:14 40.6 °F 34 °F 30.07 in West 3 mph 4 mph 77% 0 in 33.00 W/m2
20:19 40.5 °F 34.2 °F 30.07 in West 3 mph 4 mph 78% 0 in 28.00 W/m2
20:24 40.3 °F 34 °F 30.07 in West 4 mph 4 mph 78% 0 in 23.00 W/m2
20:29 40.1 °F 34.1 °F 30.07 in West 2 mph 4 mph 79% 0 in 18.00 W/m2
20:34 40 °F 34 °F 30.08 in West 3 mph 4 mph 79% 0 in 14.00 W/m2
20:39 39.8 °F 34.1 °F 30.08 in West 1 mph 4 mph 80% 0 in 11.00 W/m2
20:44 39.7 °F 34 °F 30.07 in West 2 mph 3 mph 80% 0 in 7.00 W/m2
20:49 39.5 °F 33.8 °F 30.08 in West 2 mph 3 mph 80% 0 in 0.00 W/m2
20:54 39.3 °F 34 °F 30.08 in West 2 mph 3 mph 81% 0 in 0.00 W/m2
20:59 39.2 °F 33.9 °F 30.08 in West 1 mph 3 mph 81% 0 in 0.00 W/m2
21:04 39 °F 33.7 °F 30.08 in West 3 mph 3 mph 81% 0 in 0.00 W/m2
21:09 38.8 °F 33.8 °F 30.07 in West 2 mph 3 mph 82% 0 in 0.00 W/m2
21:14 38.6 °F 33.3 °F 30.07 in West 2 mph 3 mph 81% 0 in 0.00 W/m2
21:19 38.5 °F 33.2 °F 30.08 in West 2 mph 3 mph 81% 0 in 0.00 W/m2
21:24 38.3 °F 33.3 °F 30.08 in West 1 mph 3 mph 82% 0 in 0.00 W/m2
21:29 38.2 °F 33.2 °F 30.08 in West 2 mph 2 mph 82% 0 in 0.00 W/m2
21:34 38 °F 33 °F 30.08 in West 2 mph 2 mph 82% 0 in 0.00 W/m2
21:39 37.8 °F 32.8 °F 30.08 in West 1 mph 2 mph 82% 0 in 0.00 W/m2
21:44 37.5 °F 32.8 °F 30.08 in West 1 mph 2 mph 83% 0 in 0.00 W/m2
21:49 37.4 °F 32.7 °F 30.08 in West 2 mph 2 mph 83% 0 in 0.00 W/m2
21:54 37 °F 32.3 °F 30.08 in West 2 mph 2 mph 83% 0 in 0.00 W/m2
21:59 36.8 °F 32.1 °F 30.08 in West 2 mph 3 mph 83% 0 in 0.00 W/m2
22:04 36.6 °F 32.2 °F 30.08 in West 2 mph 3 mph 84% 0 in 0.00 W/m2
22:09 36.4 °F 32.3 °F 30.08 in West 2 mph 3 mph 85% 0 in 0.00 W/m2
22:14 36.3 °F 32.2 °F 30.08 in West 2 mph 3 mph 85% 0 in 0.00 W/m2
22:19 36.1 °F 32 °F 30.08 in West 2 mph 3 mph 85% 0 in 0.00 W/m2
22:24 36 °F 32.2 °F 30.08 in West 2 mph 3 mph 86% 0 in 0.00 W/m2
22:29 35.9 °F 32.1 °F 30.08 in West 3 mph 3 mph 86% 0 in 0.00 W/m2
22:34 35.8 °F 32 °F 30.08 in West 3 mph 3 mph 86% 0 in 0.00 W/m2
22:39 35.6 °F 31.8 °F 30.08 in West 2 mph 3 mph 86% 0 in 0.00 W/m2
22:44 35.4 °F 31.9 °F 30.08 in West 1 mph 3 mph 87% 0 in 0.00 W/m2
22:49 35.1 °F 31.6 °F 30.08 in West 1 mph 2 mph 87% 0 in 0.00 W/m2
22:54 35 °F 31.5 °F 30.08 in West 1 mph 3 mph 87% 0 in 0.00 W/m2
22:59 34.9 °F 31.7 °F 30.08 in West 2 mph 3 mph 88% 0 in 0.00 W/m2
23:04 34.9 °F 31.7 °F 30.07 in West 1 mph 2 mph 88% 0 in 0.00 W/m2
23:09 34.8 °F 31.9 °F 30.07 in Calm   2 mph 89% 0 in 0.00 W/m2
23:14 34.8 °F 31.9 °F 30.07 in Calm   1 mph 89% 0 in 0.00 W/m2
23:19 34.6 °F 31.4 °F 30.07 in West 2 mph 2 mph 88% 0 in 0.00 W/m2
23:24 34.3 °F 31.4 °F 30.07 in West 2 mph 2 mph 89% 0 in 0.00 W/m2
23:29 34.1 °F 31.2 °F 30.07 in West 2 mph 3 mph 89% 0 in 0.00 W/m2
23:34 34 °F 31.1 °F 30.07 in West 2 mph 3 mph 89% 0 in 0.00 W/m2
23:39 33.8 °F 31.2 °F 30.07 in West 2 mph 3 mph 90% 0 in 0.00 W/m2
23:44 33.6 °F 30.7 °F 30.07 in West 1 mph 3 mph 89% 0 in 0.00 W/m2
23:49 33.4 °F 30.8 °F 30.07 in West 1 mph 2 mph 90% 0 in 0.00 W/m2
23:54 33.2 °F 30.6 °F 30.07 in Calm   2 mph 90% 0 in 0.00 W/m2
23:59 33 °F 30.4 °F 30.07 in West 2 mph 3 mph 90% 0 in 0.00 W/m2
Bismarck, North Dakota, USA
Compliments of Weather Underground - 4 mb